Simultaneous Nadir Overpasses (SNOs) Predictions

Prediction of SNOs between GOES-15 and TERRA Satellite Orbit:

Table of predicted SNOs for the next 14.0 days since TLE Epoch: 1/23/2022
Index Date Time (GOES-15) GOES-15 Lat,Lon TERRA Lat,Lon Distance(km) Time Diff (sec)
1 01/23/2022 07:11:10 -0.01,-128.35 -0.68,-131.53 362.09 80
2 01/25/2022 06:58:56 -0.00,-128.34 -0.06,-128.58 26.75 80
3 01/27/2022 06:44:02 0.00,-128.33 0.56,-125.62 307.67 80
4 01/27/2022 19:07:57 0.00,-128.35 0.52,-130.78 276.85 80
5 01/29/2022 18:53:03 -0.01,-128.32 -0.11,-127.83 56.54 80
6 01/31/2022 18:40:49 -0.01,-128.30 -0.74,-124.87 389.66 80
7 02/01/2022 07:04:52 0.01,-128.27 -0.39,-130.06 203.86 80
8 02/03/2022 06:49:57 -0.02,-128.24 0.20,-127.09 130.15 80
9 02/03/2022 19:11:11 0.03,-128.26 0.89,-132.25 454.76 80
10 02/05/2022 06:37:43 -0.02,-128.22 0.85,-124.14 463.50 80
11 02/05/2022 18:58:57 0.02,-128.23 0.24,-129.30 121.45 80
